www.pogodaiklimat.ru

Погода и климат >> Архив погоды >> Россия >> Якутия >> Джалинда


АРХИВ ПОГОДЫ в Джалинде

Время (UTC), дата Ветер
(напр.,м/с)
 
Видим.   Явления Облачность Т
(С)
Тd
(С)
f
(%)
Тe
(С)
Тes
(С)
Комфортность P
(гПа)
Po
(гПа)
Тmin
(С)
Tmax
(С)
R
(мм)
R24
(мм)
S
(см)
06 13.09 С 5 50 км {морось} 10/10 600 м
[Sc]
+5.7 +3.1 83 +1 +1 999.7 992.2
09 13.09 СЗ 5 50 км 9/9 600 м
[Sc]
+6.6 +2.8 77 +3 +3 999.7 992.2
12 13.09 СЗ 5 50 км 10/10 600 м
[Sc]
+4.6 +2.6 87 -0 -0 999.7 992.2 +6.6
15 13.09 С 3 20 км слаб. морось 10/10 600 м
[St]
+3.4 +3.4 100 -1 -1 999.7 992.2
18 13.09 С 3 20 км слаб. морось 10/10 600 м
[St]
+1.8 +1.8 100 -3 -3 999.5 991.8
21 13.09 С 3 10 км слаб. морось 10/10 600 м
[St]
+2.5 +2.5 100 -2 -2 998.7 991.0
00 14.09 С 5 50 км {морось} 10/10 600 м
[St]
+3.2 +2.4 94 -2 -2 997.9 990.2 +1.8 0.6
03 14.09 С 5 10 км слаб. морось 10/10 600 м
[St]
+3.9 +3.2 95 -1 -1 997.7 990.2
06 14.09 С 3 50 км {морось} 10/10 600 м
[St]
+5.1 +3.9 92 +2 +2 998.0 990.5
09 14.09 С 3 50 км слаб. морось 10/10 600 м
[St]
+5.3 +4.1 92 +2 +2 998.8 991.3
12 14.09 С 3 20 км слаб. морось 10/10 600 м
[St]
+5.0 +4.3 95 +1 +1 1000.0 992.5 +5.3 0.4
15 14.09 С 1 20 км слаб. дождь {морось} 10/8 600 м
[Frnb As op]
+4.1 +3.9 99 +2 +2 1000.1 992.6
18 14.09 штиль 0 10 км слаб. дождь {морось} 10/8 600 м
[Frnb As op]
+1.1 +1.1 100 -0 -0 1001.8 994.1
21 14.09 штиль 0 10 км слаб. дождь со снегом 10/6 600 м
[Frnb As op]
-0.4 -0.4 100 -2 -2 1003.8 996.1
00 15.09 штиль 0 50 км {снег, дождь} 10/0
[As op]
+0.6 +0.6 100 -1 -1 1004.8 997.1 -0.4 2 0
03 15.09 штиль 0 50 км 10/0
[As op]
+1.8 +1.5 98 +1 +1 1005.9 998.2
06 15.09 штиль 0 50 км 9/9 600 м
[Sc]
+3.4 +2.4 93 +2 +3 1006.7 999.0
09 15.09 штиль 0 50 км 6/6 600 м
[Sc]
+4.5 +0.3 74 +4 +4 1007.3 999.7
12 15.09 штиль 0 50 км 4/0
[Ci sp]
+0.9 +0.6 98 -1 -1 1008.9 1000.7 +4.5
15 15.09 штиль 0 50 км 4/0
[Ci sp]
-1.1 -1.4 98 -2 -2 1009.1 1001.4
18 15.09 С 1 50 км 10/0
[Cs]
+0.1 -0.2 98 -2 -2 1009.4 1001.7
21 15.09 С 1 50 км 10/10 600 м
[Sc]
+0.9 -0.2 92 -1 -1 1009.4 1001.7
00 16.09 С 5 50 км 10/10 600 м
[Sc]
+0.6 -0.5 92 -5 -5 1009.4 1001.7 -1.1
03 16.09 СВ 3 50 км 10/10 600 м
[Sc]
+0.5 -0.6 92 -4 -4 1010.0 1002.3
06 16.09 СВ 1 50 км 10/10 600 м
[Sc]
+1.1 -0.9 86 -1 -1 1010.6 1002.9
09 16.09 СВ 1 50 км 10/10 600 м
[Sc]
+1.1 -0.9 86 -1 -1 1012.0 1004.3
12 16.09 штиль 0 50 км 8/0
[Ci sp]
0.0 0.0 100 -1 -1 1013.1 1005.3 +1.1
15 16.09 штиль 0 50 км 9/9 600 м
[Sc]
0.0 0.0 100 -1 -1 1013.7 1005.9
18 16.09 штиль 0 50 км 9/9 600 м
[Sc]
-0.9 -0.9 100 -2 -2 1014.6 1006.7
21 16.09 штиль 0 50 км 10/10 600 м
[St]
-0.9 -0.9 100 -2 -2 1015.7 1007.9
00 17.09 штиль 0 50 км 10/10 600 м
[St]
-0.7 -1.6 94 -2 -2 1016.8 1009.0 -0.9
03 17.09 штиль 0 50 км 10/10 600 м
[St]
+0.1 -2.0 86 -1 -1 1016.9 1009.0
06 17.09 штиль 0 50 км 8/8 600 м
[St]
+1.4 -1.1 83 0 +1 1018.0 1010.2
09 17.09 штиль 0 50 км 3/1 600 м
[Sc Ci fib]
+2.4 -1.5 75 +2 +2 1018.8 1011.0
12 17.09 штиль 0 50 км 3/0
[Ci sp]
-1.2 -1.8 96 -3 -3 1020.3 1012.5 +2.6
15 17.09 штиль 0 50 км 3/0
[Ci sp]
-3.4 -3.8 97 -5 -5 1020.5 1012.5
18 17.09 штиль 0 50 км 10/10 600 м
[St]
-2.0 -2.3 98 -3 -3 1021.1 1013.1
21 17.09 штиль 0 50 км 8/0
[Ci sp]
-2.8 -3.2 97 -4 -4 1021.7 1013.7
00 18.09 СЗ 1 50 км 9/9 600 м
[Sc]
-2.4 -2.7 98 -5 -5 1021.3 1013.3 -2.8
03 18.09 СЗ 3 50 км 9/9 600 м
[Sc]
-0.4 -1.0 96 -5 -5 1019.8 1011.9
06 18.09 СЗ 3 20 км слаб. снег 10/6 600 м
[Frnb As op]
+0.4 -0.6 93 -4 -4 1018.7 1010.9
09 18.09 СЗ 1 20 км слаб. морось 10/10 600 м
[St]
+1.5 +1.0 96 -1 -1 1017.5 1009.7
12 18.09 штиль 0 50 км {морось} 10/10 600 м
[St]
+0.9 +0.6 98 -1 -1 1017.3 1009.5 +1.5 0.0
15 18.09 С 1 50 км 10/10 600 м
[St]
+1.1 +0.6 96 -1 -1 1015.2 1007.4
18 18.09 штиль 0 20 км слаб. морось 10/10 600 м
[St]
+0.7 +0.4 98 -1 -1 1014.9 1007.1
21 18.09 штиль 0 20 км слаб. морось 10/10 600 м
[St]
+0.4 +0.4 100 -1 -1 1013.9 1006.1
00 19.09 штиль 0 20 км слаб. дождь со снегом 10/8 600 м
[Frnb As op]
+0.6 +0.6 100 -1 -1 1013.2 1005.4 +0.4 0.4
03 19.09 штиль 0 50 км {снег, дождь} 10/6 600 м
[Frnb As op]
+2.4 +0.8 89 +1 +1 1012.9 1005.1
06 19.09 штиль 0 50 км в посл. час дождь 10/8 600 м
[Frnb As op]
+3.2 +2.2 93 +2 +2 1012.9 1005.1
09 19.09 штиль 0 50 км 6/6 600 м
[Sc]
+4.0 +0.9 80 +3 +3 1014.2 1006.5
12 19.09 штиль 0 50 км 6/6 600 м
[Sc]
+1.8 +1.3 96 +1 +1 1014.5 1006.7 +4.0 0.0
15 19.09 штиль 0 50 км 6/0
[Ci sp]
0.0 0.0 100 -1 -1 1014.0 1006.2
18 19.09 штиль 0 50 км 6/0
[Ci sp]
-0.8 -0.8 100 -2 -2 1013.7 1005.8
21 19.09 штиль 0 4000 м туман 10/10 600 м
[St]
+0.6 +0.6 100 -1 -1 1012.9 1005.1
00 20.09 штиль 0 50 км {туман} 10/10 600 м
[St]
+0.6 +0.3 98 -1 -1 1011.5 1003.8 -10.1
03 20.09 штиль 0 50 км 10/10 600 м
[St]
+1.6 +0.8 94 0 0 1010.7 1003.0

 

Местоположение метеостанции Джалинда (Якутия, Россия): широта 70.13 долгота 113.90 высота над уровнем моря 62 м.

В архиве по умолчанию представлена погода в Джалинде за последнюю неделю. Архивные данные за месяц целиком и за предыдущие месяцы, начиная с января 2011 года, Вы можете получить, выбрав интересующий диапазон дат из раскрывающегося списка и нажав кнопку "Ввод!".


*Определитесь, кто Вы:
робот инопланетянин человек

Внимание! Время в таблицах - всемирное. Для получения местного времени необходимо прибавить поправку, которая равна 9 ч.

Смотрите также архив погоды в соседних городах и на ближайших метеорологических станциях:

Погода в Оленеке (Якутия, Россия) (191 км)
Погода в Саскылахе (Якутия, Россия) (205 км)
Погода в Сухане (Якутия, Россия) (241 км)
Погода в Анабаре (Якутия, Россия) (344 км)
Погода на Усть-Оленеке (Якутия, Россия) (380 км)
Погода в Полярном (Якутия, Россия) (383 км)
Погода в Ярольине (Якутия, Россия) (399 км)
Погода в Тюмяти (Якутия, Россия) (400 км)
Погода в Джарджане (Якутия, Россия) (424 км)
Погода в Шелагонцах (Якутия, Россия) (432 км)

Пояснения к столбцам:

Ветер - указаны скорость ветра в м/с - средняя за 10 мин, порывы в срок и между сроками (в фигурных скобках) и направление, откуда дует ветер: С - северный, СВ - северо-восточный, В - восточный, ЮВ - юго-восточный, Ю - южный, ЮЗ - юго-западный, З - западный, СЗ - северо-западный.
Видимость - горизонтальная дальность видимости в метрах или километрах. При видимости от 1 до 10 км при отсутствии осадков обычно наблюдается дымка, при ухудшении видимости до 1 км и менее - туман. В сухую погоду видимость может ухудшаться дымом, пылью или мглою.
Явления - указаны атмосферные явления, наблюдавшиеся в срок или в последний час перед сроком; фигурными скобками обозначены явления, наблюдавшиеся между сроками (за 1-3 часа до срока); квадратными скобками обозначены град или гололедные отложения с указанием их диаметра в мм.
Облачность - указаны через наклонную черту общая и нижняя облачность в баллах и высота нижней границы облаков в метрах; квадратными скобками обозначены формы облаков: Ci - перистые, Cs - перисто-слоистые, Cc - перисто-кучевые, Ac - высококучевые, As - высокослоистые, Sc - слоисто-кучевые, Ns - слоисто-дождевые, Cu - кучевые, Cb - кучево-дождевые. Подробнее классификацию облаков см. в Атласе облаков (PDF).
T - Температура воздуха - температура, измеренная на высоте 2 м над землей.
Td - Температура точки росы - температура, при понижении до которой содержащийся в воздухе водяной пар достигнет насыщения.
f - Относительная влажность воздуха - влажноcть воздуха, измеренная на высоте 2 м над землей.
Te - Эффективная температура - температура, которую ощущает одетый по сезону человек в тени. Характеристика душности погоды. При расчете учитывается влияние влажности воздуха и скорости ветра на теплоощущения человека.
Tes - Эффективная температура на солнце - температура, которую ощущает человек, с поправкой на солнечный нагрев. Характеристика знойности погоды. Зависит от высоты солнца над горизонтом, облачности и скорости ветра. Ночью, в пасмурную погоду, а также при ветре 12 м/с и более поправка равна нулю.
P - Атмосферное давление - приведенное к уровню моря атмосферное давление.
Po - Атмосферное давление - измеренное на уровне метеостанции атмосферное давление.
Tmin - Минимальная температура - минимум температуры воздуха на высоте 2 м над землей.
Tmax - Максимальная температура - максимум температуры воздуха на высоте 2 м над землей.
R - Количество осадков - Количество выпавших осадков за период времени, мм. При наведении курсора мыши на число - период времени, за который выпало указанное количество осадков.
R24 - Количество осадков - Количество выпавших осадков за 24 часа, мм.
S - Снежный покров - Высота снежного покрова, см. При наведении курсора мыши на число - состояние снежного покрова и степень покрытия местности в баллах.